When you browse on this site, cookies collect data to enhance your experience and personalize the content and advertising you see.
Visit our Privacy Policy to learn more. By continuing to use the site, you agree to this use of cookies and data.
  • In Hungary
  • List of Countries
  • For 7 days
  • Water Temperature
  • Satellite Maps
  • Weather Map
  • News
  • Weather Widgets
  • user-avatar
    Login

    Hourly Weather Jishou

    Today, 17 February, Sunday

    Time Temperature Precipitation Wind Pressure Humidity
    00:00 +2°C° 0 mm 2 mps 740 mmHg 62%
    01:00 +1°C° 0 mm 2 mps 740 mmHg 57%
    02:00 +1°C° 0 mm 2 mps 739 mmHg 58%
    03:00 +1°C° 0 mm 2 mps 739 mmHg 60%
    04:00 +1°C° 0 mm 2 mps 739 mmHg 62%
    05:00 +1°C° 0 mm 2 mps 739 mmHg 64%
    06:00 +1°C° 0 mm 2 mps 739 mmHg 66%
    07:00 +1°C° 0 mm 2 mps 740 mmHg 54%
    08:00 +2°C° 0 mm 2 mps 740 mmHg 55%
    09:00 +2°C° 0 mm 2 mps 740 mmHg 56%
    10:00 +2°C° 0 mm 2 mps 740 mmHg 57%
    11:00 +2°C° 0 mm 2 mps 739 mmHg 58%
    12:00 +2°C° 0 mm 2 mps 739 mmHg 60%
    13:00 +2°C° 0 mm 2 mps 738 mmHg 58%
    14:00 +2°C° 0.1 mm 2 mps 738 mmHg 62%
    15:00 +2°C° 0.1 mm 2 mps 738 mmHg 66%
    16:00 +1°C° 0.1 mm 2 mps 737 mmHg 71%
    17:00 +1°C° 0.3 mm 2 mps 737 mmHg 74%
    18:00 +1°C° 0.3 mm 2 mps 737 mmHg 78%
    19:00 +1°C° 0.3 mm 2 mps 737 mmHg 82%
    20:00 +1°C° 0.2 mm 2 mps 737 mmHg 83%
    21:00 -1°C° 0.2 mm 2 mps 737 mmHg 84%
    22:00 -1°C° 0.2 mm 2 mps 737 mmHg 85%
    23:00 -1°C° 0.1 mm 2 mps 737 mmHg 85%

    Tomorrow, 18 February, Monday

    Time Temperature Precipitation Wind Pressure Humidity
    00:00 +1°C° 0.1 mm 2 mps 736 mmHg 86%
    01:00 +2°C° 0.1 mm 1 mps 736 mmHg 86%
    02:00 +2°C° 0.1 mm 1 mps 735 mmHg 87%
    03:00 +2°C° 0.1 mm 1 mps 735 mmHg 88%
    04:00 +2°C° 0.1 mm 1 mps 734 mmHg 89%
    05:00 +2°C° 0.1 mm 1 mps 734 mmHg 89%
    06:00 +2°C° 0.1 mm 1 mps 734 mmHg 89%
    07:00 +2°C° 0.1 mm 1 mps 734 mmHg 90%
    08:00 +3°C° 0.1 mm 1 mps 734 mmHg 88%
    09:00 +3°C° 0.1 mm 1 mps 735 mmHg 87%
    10:00 +4°C° 0.1 mm 1 mps 735 mmHg 86%
    11:00 +4°C° 0.1 mm 1 mps 734 mmHg 86%
    12:00 +4°C° 0.1 mm 1 mps 734 mmHg 86%
    13:00 +4°C° 0.1 mm 1 mps 733 mmHg 87%
    14:00 +3°C° 0 mm 2 mps 733 mmHg 86%
    15:00 +4°C° 0 mm 2 mps 733 mmHg 86%
    16:00 +4°C° 0 mm 2 mps 732 mmHg 85%
    17:00 +4°C° 0.1 mm 2 mps 733 mmHg 87%
    18:00 +4°C° 0.1 mm 2 mps 733 mmHg 88%
    19:00 +3°C° 0.1 mm 2 mps 733 mmHg 90%
    20:00 +3°C° 0.4 mm 2 mps 734 mmHg 90%
    21:00 +3°C° 0.4 mm 2 mps 734 mmHg 91%
    22:00 +3°C° 0.4 mm 2 mps 734 mmHg 91%
    23:00 +3°C° 0.2 mm 2 mps 734 mmHg 91%

    Day after tomorrow, 19 February, Tuesday

    Time Temperature Precipitation Wind Pressure Humidity
    00:00 +3°C° 0.2 mm 2 mps 734 mmHg 92%
    01:00 +4°C° 0.2 mm 1 mps 734 mmHg 92%
    02:00 +4°C° 0.2 mm 1 mps 734 mmHg 92%
    03:00 +4°C° 0.2 mm 1 mps 733 mmHg 93%
    04:00 +5°C° 0.2 mm 1 mps 733 mmHg 93%
    05:00 +5°C° 0.1 mm 1 mps 734 mmHg 93%
    06:00 +5°C° 0.1 mm 1 mps 734 mmHg 92%
    07:00 +5°C° 0.1 mm 1 mps 734 mmHg 92%
    08:00 +5°C° 0.1 mm 1 mps 735 mmHg 91%
    09:00 +5°C° 0.1 mm 1 mps 735 mmHg 89%
    10:00 +6°C° 0.1 mm 1 mps 735 mmHg 88%
    11:00 +6°C° 0.1 mm 1 mps 735 mmHg 87%
    12:00 +7°C° 0.1 mm 1 mps 734 mmHg 87%
    13:00 +6°C° 0.1 mm 2 mps 734 mmHg 86%
    14:00 +6°C° 0.1 mm 2 mps 734 mmHg 87%
    15:00 +7°C° 0.1 mm 1 mps 734 mmHg 88%
    16:00 +7°C° 0.1 mm 1 mps 734 mmHg 89%
    17:00 +6°C° 0.1 mm 1 mps 734 mmHg 90%
    18:00 +6°C° 0.1 mm 1 mps 735 mmHg 91%
    19:00 +6°C° 0.1 mm 1 mps 735 mmHg 93%
    20:00 +6°C° 0.1 mm 1 mps 735 mmHg 92%
    21:00 +5°C° 0.1 mm 2 mps 736 mmHg 92%
    22:00 +5°C° 0.1 mm 2 mps 736 mmHg 91%
    23:00 +5°C° 0.3 mm 2 mps 736 mmHg 92%

    20 February, Wednesday

    Time Temperature Precipitation Wind Pressure Humidity
    00:00 +5°C° 0.3 mm 2 mps 735 mmHg 92%
    01:00 +6°C° 0.3 mm 1 mps 735 mmHg 93%
    02:00 +6°C° 0.2 mm 1 mps 735 mmHg 93%
    03:00 +6°C° 0.2 mm 1 mps 734 mmHg 94%
    04:00 +6°C° 0.2 mm 1 mps 734 mmHg 95%
    05:00 +6°C° 0 mm 1 mps 734 mmHg 94%
    06:00 +6°C° 0 mm 1 mps 734 mmHg 93%
    07:00 +6°C° 0 mm 1 mps 735 mmHg 92%
    08:00 +7°C° 0 mm 1 mps 735 mmHg 91%
    09:00 +6°C° 0 mm 2 mps 735 mmHg 90%
    10:00 +7°C° 0 mm 2 mps 735 mmHg 89%
    11:00 +7°C° 0.1 mm 2 mps 735 mmHg 89%
    12:00 +7°C° 0.1 mm 2 mps 734 mmHg 88%
    13:00 +7°C° 0.1 mm 2 mps 734 mmHg 88%
    14:00 +7°C° 0.2 mm 2 mps 734 mmHg 89%
    15:00 +7°C° 0.2 mm 2 mps 734 mmHg 89%
    16:00 +7°C° 0.2 mm 2 mps 733 mmHg 90%
    17:00 +7°C° 0.3 mm 2 mps 734 mmHg 91%
    18:00 +7°C° 0.3 mm 2 mps 734 mmHg 91%
    19:00 +7°C° 0.3 mm 2 mps 735 mmHg 92%
    20:00 +7°C° 0.3 mm 2 mps 735 mmHg 92%
    21:00 +7°C° 0.3 mm 2 mps 736 mmHg 92%
    22:00 +7°C° 0.3 mm 2 mps 736 mmHg 93%
    23:00 +7°C° 0.5 mm 2 mps 736 mmHg 93%

    21 February, Thursday

    Time Temperature Precipitation Wind Pressure Humidity
    00:00 +7°C° 0.5 mm 2 mps 735 mmHg 93%
    01:00 +7°C° 0.5 mm 2 mps 735 mmHg 94%
    02:00 +7°C° 0.1 mm 2 mps 735 mmHg 93%
    03:00 +8°C° 0.1 mm 1 mps 735 mmHg 93%
    04:00 +7°C° 0.1 mm 1 mps 734 mmHg 93%
    05:00 +6°C° 0.1 mm 2 mps 735 mmHg 93%
    06:00 +7°C° 0.1 mm 2 mps 735 mmHg 92%
    07:00 +7°C° 0.1 mm 2 mps 735 mmHg 92%
    08:00 +7°C° 0.2 mm 2 mps 736 mmHg 92%
    09:00 +7°C° 0.2 mm 2 mps 736 mmHg 91%
    10:00 +7°C° 0.2 mm 2 mps 736 mmHg 90%
    11:00 +7°C° 0.2 mm 2 mps 736 mmHg 90%
    12:00 +7°C° 0.2 mm 2 mps 735 mmHg 90%
    13:00 +7°C° 0.2 mm 2 mps 735 mmHg 90%
    14:00 +8°C° 0 mm 2 mps 735 mmHg 88%
    15:00 +8°C° 0 mm 2 mps 735 mmHg 85%
    16:00 +9°C° 0 mm 2 mps 735 mmHg 83%
    17:00 +9°C° 0 mm 1 mps 736 mmHg 87%
    18:00 +8°C° 0 mm 1 mps 736 mmHg 90%
    19:00 +7°C° 0 mm 1 mps 736 mmHg 94%
    20:00 +7°C° 0 mm 1 mps 737 mmHg 95%
    21:00 +6°C° 0 mm 1 mps 737 mmHg 95%
    22:00 +6°C° 0 mm 1 mps 737 mmHg 96%
    23:00 +6°C° 0 mm 1 mps 737 mmHg 96%

    22 February, Friday

    Time Temperature Precipitation Wind Pressure Humidity
    00:00 +5°C° 0 mm 1 mps 737 mmHg 95%
    01:00 +4°C° 0 mm 0 mps 738 mmHg 95%
    02:00 +4°C° 0 mm 0 mps 737 mmHg 96%
    03:00 +4°C° 0 mm 0 mps 737 mmHg 96%
    04:00 +3°C° 0 mm 0 mps 737 mmHg 96%
    05:00 +4°C° 0 mm 0 mps 737 mmHg 95%
    06:00 +4°C° 0 mm 0 mps 737 mmHg 94%
    07:00 +5°C° 0 mm 1 mps 738 mmHg 92%
    08:00 +7°C° 0 mm 1 mps 738 mmHg 84%
    09:00 +9°C° 0 mm 1 mps 738 mmHg 76%
    10:00 +10°C° 0 mm 2 mps 738 mmHg 68%
    11:00 +12°C° 0 mm 2 mps 738 mmHg 66%
    12:00 +13°C° 0 mm 2 mps 737 mmHg 64%
    13:00 +14°C° 0 mm 2 mps 736 mmHg 62%
    14:00 +13°C° 0 mm 2 mps 736 mmHg 66%
    15:00 +13°C° 0 mm 2 mps 736 mmHg 70%
    16:00 +12°C° 0 mm 1 mps 735 mmHg 75%
    17:00 +12°C° 0 mm 2 mps 736 mmHg 78%
    18:00 +10°C° 0 mm 2 mps 736 mmHg 80%
    19:00 +10°C° 0 mm 2 mps 737 mmHg 83%
    20:00 +9°C° 0 mm 2 mps 737 mmHg 84%
    21:00 +9°C° 0 mm 2 mps 737 mmHg 85%
    22:00 +9°C° 0 mm 2 mps 737 mmHg 86%
    23:00 +9°C° 0.3 mm 2 mps 737 mmHg 87%
    Show more